CGRYT CYYE-CYAV

Flight info

Callsign CGRYT
Flight time 3h 30m
Altitude 29000
Route YYE J513 YMM Q963 YVC DCT MEVDU DCT AMBIL
Aircraft TBM9/L-SDFGRWY/S

Departure

Time 2026-04-28 11:15
Airport Fort Nelson Airport (CYYE)

Arrival

Time 2026-04-28 14:45
Airport Winnipeg / St. Andrews Airport (CYAV)
Time Latitude Longitude Altitude Speed Heading
2026-04-28 10:56 58.83830 -122.58122 1238 ft 0 kts
2026-04-28 10:57 58.83819 -122.58130 1238 ft 2 kts 32°
2026-04-28 10:57 58.83819 -122.58131 1238 ft 0 kts 32°
2026-04-28 11:10 58.83819 -122.58130 1238 ft 0 kts 32°
2026-04-28 11:11 58.83823 -122.58193 1238 ft 9 kts 259°
2026-04-28 11:11 58.83823 -122.58348 1240 ft 14 kts 273°
2026-04-28 11:11 58.83813 -122.58548 1242 ft 17 kts 268°
2026-04-28 11:11 58.83829 -122.58773 1251 ft 16 kts 296°
2026-04-28 11:12 58.83933 -122.58799 1257 ft 17 kts
2026-04-28 11:12 58.84012 -122.58790 1250 ft 0 kts
2026-04-28 11:13 58.84017 -122.58789 1255 ft 5 kts 360°
2026-04-28 11:14 58.84070 -122.58804 1254 ft 9 kts 329°
2026-04-28 11:14 58.84096 -122.58887 1260 ft 7 kts 235°
2026-04-28 11:14 58.84009 -122.59143 1257 ft 52 kts 236°
2026-04-28 11:14 58.83700 -122.60053 1285 ft 104 kts 232°
2026-04-28 11:15 58.83245 -122.61238 1566 ft 116 kts 227°
2026-04-28 11:15 58.82710 -122.62466 1934 ft 120 kts 226°
2026-04-28 11:15 58.82170 -122.63828 2231 ft 137 kts 248°
2026-04-28 11:15 58.82046 -122.65736 2581 ft 152 kts 279°
2026-04-28 11:16 58.82599 -122.67564 2887 ft 171 kts 322°
2026-04-28 11:16 58.83746 -122.68047 3345 ft 173 kts 13°
2026-04-28 11:16 58.84792 -122.66982 3870 ft 176 kts 38°
2026-04-28 11:16 58.85625 -122.65179 4324 ft 181 kts 58°
2026-04-28 11:17 58.86262 -122.63115 4824 ft 181 kts 55°
2026-04-28 11:17 58.86977 -122.61072 5261 ft 186 kts 56°
2026-04-28 11:17 58.87516 -122.58792 5734 ft 188 kts 72°
2026-04-28 11:17 58.87685 -122.56268 6175 ft 192 kts 88°
2026-04-28 11:18 58.87568 -122.53694 6646 ft 193 kts 94°
2026-04-28 11:18 58.87420 -122.51108 7121 ft 195 kts 93°
2026-04-28 11:18 58.87293 -122.48489 7604 ft 196 kts 94°
2026-04-28 11:18 58.87177 -122.45849 8083 ft 198 kts 92°
2026-04-28 11:19 58.87098 -122.43173 8549 ft 200 kts 91°
2026-04-28 11:19 58.87001 -122.40484 9009 ft 202 kts 93°
2026-04-28 11:19 58.86887 -122.37764 9472 ft 204 kts 93°
2026-04-28 11:19 58.86812 -122.35940 9773 ft 205 kts 92°
2026-04-28 11:20 58.86708 -122.33176 10228 ft 208 kts 92°
2026-04-28 11:20 58.86572 -122.29458 10847 ft 210 kts 92°
2026-04-28 11:20 58.86462 -122.26634 11306 ft 212 kts 92°
2026-04-28 11:20 58.86349 -122.23787 11753 ft 214 kts 93°
2026-04-28 11:21 58.86268 -122.21844 12054 ft 215 kts 92°
2026-04-28 11:21 58.86154 -122.18957 12506 ft 216 kts 92°
2026-04-28 11:21 58.86038 -122.16050 12953 ft 218 kts 92°
2026-04-28 11:21 58.85921 -122.13117 13379 ft 220 kts 92°
2026-04-28 11:22 58.85797 -122.10167 13818 ft 221 kts 92°
2026-04-28 11:22 58.85676 -122.07192 14241 ft 223 kts 92°
2026-04-28 11:22 58.85554 -122.04190 14679 ft 225 kts 92°
2026-04-28 11:22 58.85428 -122.01170 15124 ft 226 kts 91°
2026-04-28 11:23 58.85305 -121.98174 15537 ft 228 kts 91°
2026-04-28 11:23 58.85177 -121.95117 15961 ft 229 kts 91°
2026-04-28 11:23 58.85062 -121.92043 16382 ft 230 kts 91°
2026-04-28 11:23 58.84934 -121.88951 16783 ft 232 kts 91°
2026-04-28 11:24 58.84792 -121.85839 17192 ft 233 kts 92°
2026-04-28 11:24 58.84650 -121.82708 17595 ft 234 kts 91°
2026-04-28 11:24 58.84508 -121.79562 17993 ft 236 kts 91°
2026-04-28 11:24 58.84373 -121.76396 18390 ft 237 kts 91°
2026-04-28 11:25 58.84236 -121.73207 18774 ft 239 kts 91°
2026-04-28 11:25 58.84097 -121.69996 19158 ft 241 kts 91°
2026-04-28 11:25 58.83958 -121.66757 19540 ft 243 kts 90°
2026-04-28 11:25 58.83809 -121.63495 19918 ft 245 kts 91°
2026-04-28 11:26 58.83654 -121.60209 20318 ft 246 kts 91°
2026-04-28 11:26 58.83502 -121.56904 20701 ft 248 kts 90°
2026-04-28 11:26 58.83368 -121.53572 21068 ft 250 kts 90°
2026-04-28 11:26 58.83223 -121.50216 21439 ft 252 kts 90°
2026-04-28 11:27 58.83064 -121.46839 21808 ft 254 kts 90°
2026-04-28 11:27 58.82910 -121.43482 22158 ft 255 kts 90°
2026-04-28 11:27 58.82759 -121.40053 22516 ft 257 kts 89°
2026-04-28 11:27 58.82598 -121.36607 22858 ft 259 kts 90°
2026-04-28 11:28 58.82429 -121.33140 23205 ft 260 kts 89°
2026-04-28 11:28 58.82269 -121.29647 23545 ft 262 kts 89°
2026-04-28 11:28 58.82100 -121.26137 23879 ft 264 kts 89°
2026-04-28 11:28 58.81930 -121.22606 24212 ft 265 kts 89°
2026-04-28 11:29 58.81765 -121.19050 24535 ft 267 kts 89°
2026-04-28 11:29 58.81599 -121.15516 24846 ft 269 kts 89°
2026-04-28 11:29 58.81422 -121.11908 25154 ft 271 kts 89°
2026-04-28 11:29 58.81239 -121.08285 25468 ft 273 kts 89°
2026-04-28 11:30 58.81054 -121.04633 25789 ft 274 kts 89°
2026-04-28 11:30 58.80682 -120.97275 26426 ft 277 kts 90°
2026-04-28 11:30 58.80502 -120.93562 26737 ft 279 kts 88°
2026-04-28 11:31 58.80330 -120.89827 27043 ft 281 kts 89°
2026-04-28 11:31 58.80128 -120.86067 27356 ft 282 kts 90°
2026-04-28 11:31 58.79928 -120.82284 27659 ft 284 kts 89°
2026-04-28 11:31 58.79744 -120.78482 27964 ft 285 kts 89°
2026-04-28 11:32 58.79554 -120.74667 28267 ft 287 kts 89°
2026-04-28 11:32 58.79354 -120.70830 28558 ft 288 kts 89°
2026-04-28 11:32 58.79154 -120.66971 28840 ft 290 kts 89°
2026-04-28 11:32 58.78951 -120.63076 29023 ft 296 kts 89°
2026-04-28 11:33 58.78741 -120.59059 29025 ft 307 kts 89°
2026-04-28 11:33 58.78518 -120.54894 29033 ft 316 kts 90°
2026-04-28 11:33 58.78059 -120.46350 29038 ft 328 kts 90°
2026-04-28 11:34 58.77578 -120.37484 29036 ft 336 kts 90°
2026-04-28 11:34 58.77078 -120.28443 29037 ft 342 kts 90°
2026-04-28 11:35 58.76573 -120.19295 29038 ft 343 kts 91°
2026-04-28 11:35 58.76048 -120.10147 29035 ft 343 kts 91°
2026-04-28 11:36 58.75540 -120.01001 29038 ft 343 kts 91°
2026-04-28 11:36 58.75003 -119.91875 29038 ft 342 kts 91°
2026-04-28 11:37 58.74490 -119.82776 29039 ft 342 kts 91°
2026-04-28 11:37 58.73935 -119.73686 29049 ft 342 kts 92°
2026-04-28 11:38 58.73405 -119.64592 29047 ft 342 kts 91°
2026-04-28 11:38 58.72854 -119.55574 29043 ft 341 kts 92°
2026-04-28 11:39 58.72299 -119.46500 29047 ft 342 kts 92°
2026-04-28 11:39 58.71736 -119.37432 29047 ft 341 kts 92°
2026-04-28 11:40 58.71168 -119.28357 29047 ft 341 kts 92°
2026-04-28 11:40 58.70593 -119.19302 29049 ft 341 kts 92°
2026-04-28 11:41 58.70012 -119.10243 29047 ft 341 kts 92°
2026-04-28 11:41 58.69426 -119.01204 29053 ft 341 kts 93°
2026-04-28 11:42 58.68831 -118.92167 29057 ft 340 kts 93°
2026-04-28 11:42 58.68237 -118.83196 29057 ft 340 kts 93°
2026-04-28 11:43 58.67631 -118.74155 29057 ft 340 kts 93°
2026-04-28 11:43 58.67020 -118.65137 29058 ft 340 kts 94°
2026-04-28 11:44 58.66402 -118.56121 29061 ft 340 kts 94°
2026-04-28 11:44 58.65783 -118.47167 29052 ft 340 kts 94°
2026-04-28 11:45 58.65150 -118.38164 29061 ft 340 kts 94°
2026-04-28 11:45 58.64517 -118.29185 29068 ft 339 kts 94°
2026-04-28 11:46 58.63878 -118.20221 29064 ft 339 kts 94°
2026-04-28 11:46 58.63231 -118.11257 29064 ft 339 kts 95°
2026-04-28 11:47 58.62578 -118.02299 29065 ft 339 kts 95°
2026-04-28 11:47 58.61919 -117.93409 29068 ft 338 kts 95°
2026-04-28 11:48 58.61260 -117.84469 29067 ft 338 kts 95°
2026-04-28 11:48 58.60584 -117.75526 29065 ft 339 kts 96°
2026-04-28 11:49 58.59887 -117.66595 29064 ft 339 kts 95°
2026-04-28 11:49 58.59222 -117.57649 29064 ft 339 kts 96°
2026-04-28 11:50 58.58526 -117.48726 29065 ft 338 kts 96°
2026-04-28 11:50 58.57834 -117.39799 29068 ft 338 kts 96°
2026-04-28 11:51 58.57133 -117.30889 29065 ft 338 kts 96°
2026-04-28 11:51 58.56426 -117.21988 29068 ft 338 kts 96°
2026-04-28 11:52 58.55718 -117.13147 29068 ft 338 kts 97°
2026-04-28 11:52 58.55117 -117.08789 29067 ft 340 kts 108°
2026-04-28 11:52 58.54121 -117.04674 29071 ft 341 kts 117°
2026-04-28 11:53 58.51857 -116.96667 29069 ft 341 kts 116°
2026-04-28 11:53 58.49605 -116.88678 29070 ft 341 kts 117°
2026-04-28 11:54 58.47340 -116.80703 29070 ft 341 kts 117°
2026-04-28 11:54 58.45076 -116.72740 29070 ft 340 kts 117°
2026-04-28 11:55 58.43193 -116.66141 29072 ft 340 kts 117°
2026-04-28 11:55 58.40542 -116.56886 29072 ft 340 kts 117°
2026-04-28 11:56 58.38264 -116.49021 29071 ft 340 kts 118°
2026-04-28 11:56 58.35997 -116.41129 29071 ft 339 kts 117°
2026-04-28 11:57 58.33718 -116.33255 29071 ft 339 kts 118°
2026-04-28 11:57 58.31435 -116.25398 29074 ft 339 kts 117°
2026-04-28 11:58 58.29149 -116.17549 29072 ft 339 kts 118°
2026-04-28 11:58 58.26856 -116.09709 29071 ft 338 kts 118°
2026-04-28 11:59 58.24567 -116.01905 29071 ft 338 kts 118°
2026-04-28 11:59 58.22273 -115.94113 29071 ft 338 kts 118°
2026-04-28 12:00 58.19971 -115.86330 29070 ft 338 kts 118°
2026-04-28 12:00 58.17667 -115.78551 29074 ft 338 kts 118°
2026-04-28 12:01 58.15357 -115.70783 29070 ft 338 kts 118°
2026-04-28 12:01 58.13056 -115.63071 29070 ft 338 kts 118°
2026-04-28 12:02 58.10735 -115.55318 29070 ft 338 kts 118°
2026-04-28 12:02 58.08407 -115.47568 29070 ft 339 kts 118°
2026-04-28 12:03 58.06069 -115.39807 29070 ft 340 kts 118°
2026-04-28 12:03 58.03727 -115.32063 29070 ft 340 kts 118°
2026-04-28 12:04 58.01393 -115.24367 29070 ft 340 kts 118°
2026-04-28 12:04 57.99039 -115.16635 29070 ft 339 kts 118°
2026-04-28 12:05 57.96690 -115.08940 29070 ft 338 kts 119°
2026-04-28 12:05 57.94738 -115.02566 29070 ft 338 kts 119°
2026-04-28 12:06 57.92385 -114.94907 29070 ft 338 kts 119°
2026-04-28 12:06 57.89647 -114.86025 29070 ft 337 kts 120°
2026-04-28 12:07 57.87295 -114.78424 29070 ft 336 kts 120°
2026-04-28 12:07 57.84941 -114.70841 29070 ft 335 kts 120°
2026-04-28 12:08 57.82986 -114.64558 29077 ft 335 kts 121°
2026-04-28 12:08 57.80629 -114.57011 29077 ft 334 kts 121°
2026-04-28 12:09 57.78277 -114.49498 29077 ft 334 kts 121°
2026-04-28 12:09 57.75919 -114.41997 29077 ft 334 kts 121°
2026-04-28 12:10 57.73560 -114.34513 29077 ft 334 kts 121°
2026-04-28 12:10 57.71196 -114.27036 29077 ft 333 kts 122°
2026-04-28 12:11 57.68830 -114.19579 29077 ft 333 kts 122°
2026-04-28 12:11 57.66461 -114.12132 29076 ft 333 kts 122°
2026-04-28 12:12 57.64106 -114.04755 29077 ft 333 kts 122°
2026-04-28 12:12 57.61728 -113.97328 29077 ft 333 kts 122°
2026-04-28 12:13 57.59348 -113.89918 29076 ft 333 kts 122°
2026-04-28 12:13 57.56964 -113.82521 29076 ft 333 kts 122°
2026-04-28 12:14 57.54573 -113.75121 29076 ft 333 kts 122°
2026-04-28 12:14 57.52180 -113.67746 29076 ft 333 kts 122°
2026-04-28 12:15 57.49797 -113.60418 29076 ft 333 kts 122°
2026-04-28 12:15 57.47398 -113.53059 29076 ft 333 kts 122°
2026-04-28 12:16 57.44989 -113.45704 29076 ft 333 kts 122°
2026-04-28 12:16 57.42578 -113.38358 29076 ft 333 kts 122°
2026-04-28 12:17 57.40160 -113.31016 29076 ft 333 kts 122°
2026-04-28 12:17 57.37734 -113.23669 29087 ft 333 kts 122°
2026-04-28 12:18 57.35307 -113.16345 29086 ft 333 kts 121°
2026-04-28 12:18 57.32877 -113.09034 29087 ft 334 kts 122°
2026-04-28 12:19 57.30455 -113.01769 29087 ft 334 kts 121°
2026-04-28 12:19 57.27999 -112.94425 29086 ft 333 kts 121°
2026-04-28 12:20 57.25568 -112.87178 29086 ft 333 kts 121°
2026-04-28 12:20 57.23121 -112.79903 29086 ft 333 kts 121°
2026-04-28 12:21 57.20661 -112.72653 29086 ft 333 kts 122°
2026-04-28 12:21 57.18218 -112.65398 29085 ft 333 kts 121°
2026-04-28 12:22 57.15767 -112.58146 29083 ft 333 kts 122°
2026-04-28 12:22 57.13315 -112.50936 29083 ft 334 kts 122°
2026-04-28 12:23 57.10849 -112.43696 29084 ft 334 kts 122°
2026-04-28 12:23 57.08380 -112.36469 29084 ft 334 kts 122°
2026-04-28 12:24 57.05904 -112.29247 29084 ft 334 kts 122°
2026-04-28 12:24 57.03435 -112.22006 29084 ft 334 kts 121°
2026-04-28 12:25 57.00943 -112.14793 29084 ft 334 kts 122°
2026-04-28 12:25 56.98446 -112.07590 29084 ft 334 kts 121°
2026-04-28 12:26 56.95955 -112.00399 29084 ft 334 kts 121°
2026-04-28 12:26 56.93450 -111.93206 29084 ft 335 kts 121°
2026-04-28 12:27 56.90944 -111.86021 29084 ft 335 kts 121°
2026-04-28 12:27 56.88432 -111.78845 29083 ft 335 kts 121°
2026-04-28 12:28 56.85934 -111.71729 29083 ft 334 kts 121°
2026-04-28 12:28 56.83416 -111.64578 29083 ft 335 kts 121°
2026-04-28 12:29 56.79629 -111.53863 29083 ft 335 kts 121°
2026-04-28 12:30 56.77098 -111.46729 29083 ft 334 kts 121°
2026-04-28 12:30 56.74579 -111.39647 29083 ft 335 kts 121°
2026-04-28 12:31 56.72037 -111.32525 29085 ft 335 kts 121°
2026-04-28 12:31 56.69497 -111.25426 29084 ft 334 kts 121°
2026-04-28 12:32 56.67380 -111.19527 29084 ft 335 kts 121°
2026-04-28 12:32 56.65915 -111.14575 29085 ft 331 kts 109°
2026-04-28 12:32 56.65256 -111.10592 29083 ft 328 kts 99°
2026-04-28 12:33 56.65041 -111.02411 29085 ft 323 kts 83°
2026-04-28 12:33 56.65259 -110.94264 29087 ft 323 kts 84°
2026-04-28 12:34 56.65481 -110.86169 29087 ft 322 kts 84°
2026-04-28 12:34 56.65694 -110.78035 29085 ft 321 kts 84°
2026-04-28 12:35 56.65902 -110.69925 29085 ft 321 kts 84°
2026-04-28 12:35 56.66105 -110.61803 29084 ft 321 kts 84°
2026-04-28 12:36 56.66303 -110.53701 29084 ft 321 kts 84°
2026-04-28 12:36 56.66493 -110.45607 29083 ft 320 kts 84°
2026-04-28 12:37 56.66681 -110.37515 29084 ft 320 kts 84°
2026-04-28 12:37 56.66861 -110.29484 29084 ft 320 kts 84°
2026-04-28 12:38 56.67035 -110.21408 29083 ft 319 kts 84°
2026-04-28 12:38 56.67205 -110.13339 29085 ft 319 kts 84°
2026-04-28 12:39 56.67369 -110.05270 29095 ft 319 kts 84°
2026-04-28 12:39 56.67529 -109.97211 29095 ft 318 kts 83°
2026-04-28 12:40 56.67683 -109.89201 29094 ft 317 kts 83°
2026-04-28 12:40 56.67830 -109.81192 29093 ft 317 kts 83°
2026-04-28 12:41 56.67973 -109.73177 29092 ft 317 kts 83°
2026-04-28 12:41 56.68110 -109.65217 29094 ft 317 kts 84°
2026-04-28 12:42 56.68243 -109.57202 29094 ft 317 kts 84°
2026-04-28 12:42 56.68371 -109.49192 29093 ft 316 kts 84°
2026-04-28 12:43 56.68493 -109.41193 29092 ft 316 kts 84°
2026-04-28 12:43 56.68610 -109.33185 29094 ft 316 kts 84°
2026-04-28 12:44 56.68722 -109.25183 29093 ft 316 kts 84°
2026-04-28 12:44 56.68829 -109.17182 29093 ft 316 kts 84°
2026-04-28 12:45 56.68929 -109.09249 29092 ft 316 kts 84°
2026-04-28 12:45 56.69025 -109.01276 29094 ft 315 kts 84°
2026-04-28 12:46 56.69118 -108.93295 29094 ft 315 kts 84°
2026-04-28 12:46 56.69203 -108.85314 29092 ft 315 kts 84°
2026-04-28 12:47 56.69284 -108.77350 29093 ft 314 kts 84°
2026-04-28 12:47 56.69359 -108.69409 29092 ft 314 kts 84°
2026-04-28 12:48 56.69431 -108.61496 29094 ft 314 kts 84°
2026-04-28 12:48 56.69495 -108.53566 29094 ft 313 kts 84°
2026-04-28 12:49 56.69556 -108.45645 29093 ft 312 kts 84°
2026-04-28 12:49 56.69611 -108.37737 29105 ft 312 kts 84°
2026-04-28 12:50 56.69661 -108.29827 29103 ft 312 kts 84°
2026-04-28 12:50 56.69706 -108.21975 29104 ft 312 kts 84°
2026-04-28 12:51 56.69743 -108.14074 29102 ft 312 kts 84°
2026-04-28 12:51 56.69783 -108.06185 29102 ft 312 kts 84°
2026-04-28 12:52 56.69810 -107.98294 29102 ft 311 kts 84°
2026-04-28 12:52 56.69490 -107.90424 29112 ft 317 kts 97°
2026-04-28 12:53 56.67889 -107.82914 29121 ft 326 kts 115°
2026-04-28 12:53 56.65609 -107.75765 29120 ft 327 kts 114°
2026-04-28 12:54 56.63701 -107.69771 29120 ft 327 kts 115°
2026-04-28 12:54 56.61416 -107.62640 29119 ft 326 kts 115°
2026-04-28 12:55 56.59145 -107.55560 29119 ft 327 kts 115°
2026-04-28 12:55 56.56839 -107.48397 29119 ft 327 kts 115°
2026-04-28 12:56 56.54559 -107.41327 29117 ft 327 kts 115°
2026-04-28 12:56 56.52256 -107.34217 29117 ft 327 kts 115°
2026-04-28 12:57 56.49954 -107.27129 29116 ft 327 kts 115°
2026-04-28 12:57 56.47647 -107.20047 29115 ft 326 kts 116°
2026-04-28 12:58 56.45341 -107.12989 29115 ft 326 kts 116°
2026-04-28 12:58 56.43032 -107.05939 29114 ft 326 kts 116°
2026-04-28 12:59 56.40718 -106.98897 29113 ft 326 kts 116°
2026-04-28 12:59 56.38413 -106.91903 29112 ft 326 kts 116°
2026-04-28 13:00 56.36093 -106.84886 29113 ft 325 kts 116°
2026-04-28 13:00 56.33774 -106.77889 29112 ft 325 kts 116°
2026-04-28 13:01 56.31450 -106.70900 29111 ft 325 kts 117°
2026-04-28 13:01 56.29127 -106.63932 29122 ft 324 kts 117°
2026-04-28 13:02 56.26799 -106.56972 29122 ft 324 kts 117°
2026-04-28 13:02 56.24485 -106.50070 29121 ft 324 kts 117°
2026-04-28 13:03 56.22154 -106.43140 29120 ft 324 kts 117°
2026-04-28 13:03 56.19818 -106.36214 29120 ft 324 kts 117°
2026-04-28 13:04 56.17479 -106.29297 29121 ft 324 kts 117°
2026-04-28 13:04 56.15140 -106.22405 29121 ft 323 kts 118°
2026-04-28 13:05 56.12813 -106.15564 29123 ft 323 kts 118°
2026-04-28 13:05 56.10385 -106.08776 29136 ft 326 kts 125°
2026-04-28 13:06 56.06972 -106.03360 29147 ft 333 kts 145°
2026-04-28 13:06 56.02801 -105.99639 29148 ft 335 kts 151°
2026-04-28 13:07 55.98607 -105.96014 29148 ft 335 kts 152°
2026-04-28 13:07 55.94397 -105.92422 29146 ft 335 kts 152°
2026-04-28 13:08 55.90194 -105.88825 29145 ft 335 kts 152°
2026-04-28 13:08 55.86018 -105.85268 29145 ft 335 kts 152°
2026-04-28 13:09 55.81806 -105.81687 29144 ft 335 kts 152°
2026-04-28 13:09 55.77596 -105.78117 29143 ft 335 kts 152°
2026-04-28 13:10 55.73387 -105.74556 29143 ft 335 kts 152°
2026-04-28 13:10 55.69201 -105.71023 29150 ft 335 kts 152°
2026-04-28 13:11 55.64984 -105.67473 29151 ft 335 kts 152°
2026-04-28 13:11 55.60768 -105.63929 29150 ft 335 kts 152°
2026-04-28 13:12 55.56551 -105.60396 29160 ft 335 kts 152°
2026-04-28 13:12 55.52332 -105.56870 29160 ft 336 kts 152°
2026-04-28 13:13 55.48133 -105.53367 29160 ft 336 kts 152°
2026-04-28 13:13 55.43909 -105.49852 29158 ft 336 kts 152°
2026-04-28 13:14 55.39684 -105.46345 29157 ft 336 kts 152°
2026-04-28 13:14 55.35453 -105.42841 29157 ft 336 kts 152°
2026-04-28 13:15 55.31226 -105.39349 29159 ft 336 kts 152°
2026-04-28 13:15 55.27020 -105.35881 29158 ft 336 kts 152°
2026-04-28 13:16 55.22782 -105.32398 29157 ft 336 kts 152°
2026-04-28 13:16 55.18543 -105.28919 29158 ft 336 kts 152°
2026-04-28 13:17 55.14675 -105.24478 29156 ft 330 kts 133°
2026-04-28 13:17 55.11536 -105.18651 29170 ft 329 kts 130°
2026-04-28 13:18 55.08416 -105.12858 29169 ft 329 kts 130°
2026-04-28 13:18 55.05268 -105.06989 29169 ft 329 kts 130°
2026-04-28 13:19 55.02152 -105.01207 29169 ft 329 kts 130°
2026-04-28 13:19 54.99015 -104.95396 29168 ft 329 kts 130°
2026-04-28 13:20 54.95881 -104.89605 29168 ft 329 kts 130°
2026-04-28 13:20 54.92737 -104.83811 29168 ft 329 kts 130°
2026-04-28 13:21 54.89596 -104.78037 29167 ft 329 kts 130°
2026-04-28 13:21 54.86468 -104.72299 29166 ft 329 kts 130°
2026-04-28 13:22 54.83318 -104.66536 29166 ft 329 kts 130°
2026-04-28 13:22 54.80163 -104.60776 29168 ft 329 kts 130°
2026-04-28 13:23 54.77007 -104.55030 29167 ft 329 kts 131°
2026-04-28 13:23 54.73850 -104.49295 29166 ft 329 kts 131°
2026-04-28 13:24 54.70707 -104.43601 29166 ft 329 kts 131°
2026-04-28 13:24 54.67541 -104.37876 29164 ft 329 kts 131°
2026-04-28 13:25 54.64369 -104.32159 29163 ft 329 kts 131°
2026-04-28 13:25 54.61195 -104.26447 29164 ft 330 kts 131°
2026-04-28 13:26 54.58019 -104.20746 29162 ft 330 kts 131°
2026-04-28 13:26 54.54837 -104.15049 29162 ft 330 kts 132°
2026-04-28 13:27 54.51649 -104.09364 29162 ft 330 kts 132°
2026-04-28 13:27 54.48466 -104.03686 29162 ft 330 kts 132°
2026-04-28 13:28 54.45272 -103.98010 29161 ft 329 kts 133°
2026-04-28 13:28 54.42085 -103.92357 29159 ft 329 kts 133°
2026-04-28 13:29 54.38913 -103.86746 29158 ft 329 kts 133°
2026-04-28 13:29 54.35721 -103.81115 29157 ft 329 kts 133°
2026-04-28 13:30 54.32521 -103.75479 29156 ft 329 kts 133°
2026-04-28 13:30 54.29326 -103.69867 29156 ft 329 kts 133°
2026-04-28 13:31 54.24529 -103.61465 29154 ft 329 kts 133°
2026-04-28 13:31 54.21326 -103.55873 29154 ft 329 kts 133°
2026-04-28 13:32 54.18124 -103.50294 29153 ft 329 kts 133°
2026-04-28 13:32 54.14937 -103.44753 29152 ft 329 kts 133°
2026-04-28 13:33 54.11730 -103.39194 29151 ft 328 kts 133°
2026-04-28 13:33 54.08526 -103.33651 29150 ft 328 kts 133°
2026-04-28 13:34 54.05320 -103.28118 29149 ft 328 kts 133°
2026-04-28 13:34 54.02118 -103.22603 29148 ft 327 kts 133°
2026-04-28 13:35 53.98910 -103.17095 29147 ft 327 kts 134°
2026-04-28 13:35 53.95706 -103.11601 29149 ft 328 kts 135°
2026-04-28 13:36 53.92513 -103.06142 29148 ft 328 kts 135°
2026-04-28 13:36 53.89295 -103.00651 29149 ft 328 kts 135°
2026-04-28 13:37 53.86075 -102.95173 29148 ft 327 kts 135°
2026-04-28 13:37 53.82860 -102.89712 29147 ft 327 kts 136°
2026-04-28 13:38 53.79645 -102.84266 29148 ft 326 kts 136°
2026-04-28 13:38 53.76436 -102.78843 29149 ft 326 kts 136°
2026-04-28 13:39 53.73228 -102.73433 29148 ft 326 kts 136°
2026-04-28 13:39 53.70040 -102.68066 29147 ft 325 kts 136°
2026-04-28 13:40 53.66829 -102.62678 29149 ft 325 kts 136°
2026-04-28 13:40 53.64155 -102.58198 29148 ft 325 kts 136°
2026-04-28 13:41 53.60936 -102.52818 29149 ft 325 kts 137°
2026-04-28 13:41 53.57726 -102.47464 29148 ft 324 kts 137°
2026-04-28 13:42 53.54538 -102.42158 29149 ft 324 kts 137°
2026-04-28 13:42 53.51332 -102.36834 29148 ft 324 kts 137°
2026-04-28 13:43 53.48120 -102.31512 29147 ft 324 kts 137°
2026-04-28 13:43 53.44910 -102.26205 29146 ft 324 kts 137°
2026-04-28 13:44 53.41716 -102.20940 29145 ft 324 kts 137°
2026-04-28 13:44 53.38481 -102.15616 29145 ft 324 kts 137°
2026-04-28 13:45 53.35280 -102.10358 29144 ft 324 kts 137°
2026-04-28 13:45 53.32053 -102.05071 29143 ft 324 kts 137°
2026-04-28 13:46 53.28823 -101.99790 29142 ft 324 kts 137°
2026-04-28 13:46 53.25600 -101.94534 29141 ft 323 kts 138°
2026-04-28 13:47 53.22382 -101.89300 29140 ft 323 kts 138°
2026-04-28 13:47 53.19180 -101.84097 29139 ft 323 kts 138°
2026-04-28 13:48 53.15955 -101.78872 29138 ft 323 kts 138°
2026-04-28 13:48 53.12723 -101.73648 29139 ft 323 kts 138°
2026-04-28 13:49 53.09485 -101.68426 29139 ft 324 kts 138°
2026-04-28 13:49 53.06251 -101.63219 29140 ft 324 kts 139°
2026-04-28 13:50 53.03032 -101.58050 29139 ft 324 kts 139°
2026-04-28 13:50 52.99791 -101.52857 29138 ft 324 kts 139°
2026-04-28 13:51 52.96543 -101.47664 29139 ft 324 kts 139°
2026-04-28 13:51 52.93292 -101.42477 29138 ft 324 kts 139°
2026-04-28 13:52 52.90042 -101.37303 29139 ft 324 kts 139°
2026-04-28 13:52 52.86786 -101.32131 29138 ft 324 kts 139°
2026-04-28 13:53 52.83531 -101.26971 29137 ft 324 kts 139°
2026-04-28 13:53 52.80272 -101.21818 29136 ft 324 kts 139°
2026-04-28 13:54 52.77042 -101.16696 29136 ft 324 kts 138°
2026-04-28 13:54 52.73791 -101.11545 29135 ft 324 kts 140°
2026-04-28 13:55 52.70514 -101.06441 29135 ft 324 kts 139°
2026-04-28 13:55 52.67255 -101.01312 29135 ft 324 kts 139°
2026-04-28 13:56 52.63985 -100.96208 29135 ft 324 kts 140°
2026-04-28 13:56 52.60719 -100.91101 29135 ft 324 kts 139°
2026-04-28 13:57 52.57450 -100.86012 29135 ft 323 kts 140°
2026-04-28 13:57 52.54175 -100.80934 29135 ft 323 kts 140°
2026-04-28 13:58 52.50903 -100.75861 29136 ft 323 kts 140°
2026-04-28 13:58 52.47647 -100.70840 29135 ft 323 kts 140°
2026-04-28 13:59 52.44379 -100.65778 29135 ft 323 kts 140°
2026-04-28 13:59 52.41108 -100.60742 29134 ft 323 kts 140°
2026-04-28 14:00 52.37832 -100.55721 29134 ft 322 kts 141°
2026-04-28 14:00 52.34566 -100.50698 29132 ft 322 kts 141°
2026-04-28 14:01 52.31270 -100.45655 29130 ft 322 kts 141°
2026-04-28 14:01 52.28021 -100.40690 29129 ft 322 kts 141°
2026-04-28 14:02 52.24768 -100.35731 29127 ft 322 kts 141°
2026-04-28 14:02 52.21500 -100.30759 29131 ft 321 kts 141°
2026-04-28 14:03 52.18226 -100.25787 29130 ft 321 kts 141°
2026-04-28 14:03 52.14951 -100.20825 29131 ft 321 kts 141°
2026-04-28 14:04 52.11651 -100.15835 29130 ft 321 kts 141°
2026-04-28 14:04 52.08372 -100.10894 29130 ft 321 kts 141°
2026-04-28 14:05 52.05091 -100.05954 29129 ft 321 kts 141°
2026-04-28 14:05 52.01830 -100.01052 29130 ft 321 kts 142°
2026-04-28 14:06 51.98544 -99.96127 29130 ft 321 kts 142°
2026-04-28 14:06 51.95261 -99.91214 29140 ft 321 kts 142°
2026-04-28 14:07 51.91975 -99.86310 29138 ft 321 kts 142°
2026-04-28 14:07 51.88687 -99.81411 29137 ft 321 kts 142°
2026-04-28 14:08 51.85403 -99.76526 29134 ft 321 kts 142°
2026-04-28 14:08 51.82112 -99.71643 29132 ft 321 kts 142°
2026-04-28 14:09 51.78826 -99.66779 29130 ft 320 kts 142°
2026-04-28 14:09 51.75559 -99.61950 29130 ft 320 kts 142°
2026-04-28 14:10 51.72272 -99.57104 29130 ft 320 kts 142°
2026-04-28 14:10 51.68988 -99.52271 29130 ft 319 kts 142°
2026-04-28 14:11 51.65704 -99.47450 29130 ft 319 kts 142°
2026-04-28 14:11 51.62422 -99.42640 29130 ft 318 kts 142°
2026-04-28 14:12 51.59146 -99.37848 29131 ft 318 kts 142°
2026-04-28 14:12 51.55869 -99.33067 29130 ft 317 kts 142°
2026-04-28 14:13 51.52620 -99.28333 29129 ft 317 kts 142°
2026-04-28 14:13 51.49350 -99.23580 29129 ft 317 kts 142°
2026-04-28 14:14 51.46093 -99.18831 29130 ft 317 kts 141°
2026-04-28 14:14 51.42834 -99.14082 29130 ft 316 kts 142°
2026-04-28 14:15 51.39559 -99.09388 29130 ft 315 kts 142°
2026-04-28 14:15 51.36304 -99.04680 29130 ft 315 kts 142°
2026-04-28 14:16 51.33061 -99.00016 29130 ft 315 kts 142°
2026-04-28 14:16 51.29798 -98.95329 29130 ft 315 kts 142°
2026-04-28 14:17 51.26538 -98.90657 29130 ft 315 kts 142°
2026-04-28 14:17 51.23278 -98.85993 29130 ft 315 kts 142°
2026-04-28 14:18 51.20018 -98.81338 29130 ft 315 kts 142°
2026-04-28 14:18 51.16755 -98.76689 29130 ft 315 kts 142°
2026-04-28 14:19 51.13488 -98.72049 29130 ft 314 kts 142°
2026-04-28 14:19 51.10226 -98.67417 29130 ft 314 kts 142°
2026-04-28 14:20 51.06955 -98.62783 29130 ft 314 kts 142°
2026-04-28 14:20 51.03687 -98.58163 29130 ft 314 kts 142°
2026-04-28 14:21 51.00413 -98.53549 29130 ft 314 kts 142°
2026-04-28 14:21 50.97142 -98.48938 29130 ft 314 kts 142°
2026-04-28 14:22 50.93879 -98.44335 29134 ft 314 kts 141°
2026-04-28 14:22 50.90608 -98.39746 29133 ft 314 kts 143°
2026-04-28 14:23 50.87325 -98.35149 29134 ft 314 kts 142°
2026-04-28 14:23 50.84058 -98.30615 29132 ft 314 kts 144°
2026-04-28 14:24 50.80344 -98.27135 29121 ft 310 kts 156°
2026-04-28 14:24 50.78419 -98.25552 28826 ft 312 kts 153°
2026-04-28 14:24 50.76516 -98.23877 28413 ft 313 kts 156°
2026-04-28 14:25 50.74545 -98.22404 27916 ft 314 kts 158°
2026-04-28 14:25 50.73243 -98.21404 27620 ft 315 kts 156°
2026-04-28 14:25 50.71296 -98.19778 27196 ft 317 kts 155°
2026-04-28 14:25 50.69350 -98.18140 26773 ft 318 kts 156°
2026-04-28 14:26 50.67384 -98.16544 26351 ft 318 kts 156°
2026-04-28 14:26 50.65404 -98.14955 25925 ft 319 kts 156°
2026-04-28 14:26 50.63423 -98.13353 25500 ft 320 kts 156°
2026-04-28 14:26 50.61437 -98.11739 25072 ft 322 kts 156°
2026-04-28 14:27 50.59442 -98.10118 24648 ft 323 kts 156°
2026-04-28 14:27 50.57440 -98.08492 24219 ft 324 kts 156°
2026-04-28 14:27 50.55433 -98.06872 23788 ft 325 kts 156°
2026-04-28 14:27 50.53421 -98.05252 23355 ft 326 kts 156°
2026-04-28 14:28 50.51402 -98.03626 22921 ft 326 kts 156°
2026-04-28 14:28 50.49404 -98.02019 22488 ft 327 kts 156°
2026-04-28 14:28 50.47375 -98.00388 22056 ft 327 kts 156°
2026-04-28 14:28 50.45348 -97.98757 21619 ft 328 kts 156°
2026-04-28 14:29 50.43318 -97.97116 21182 ft 329 kts 156°
2026-04-28 14:29 50.41280 -97.95481 20745 ft 329 kts 156°
2026-04-28 14:29 50.39236 -97.93846 20309 ft 330 kts 156°
2026-04-28 14:29 50.37194 -97.92199 19865 ft 330 kts 156°
2026-04-28 14:30 50.35151 -97.90560 19427 ft 329 kts 157°
2026-04-28 14:30 50.33121 -97.88938 18993 ft 328 kts 156°
2026-04-28 14:30 50.31092 -97.87310 18549 ft 327 kts 156°
2026-04-28 14:30 50.29075 -97.85703 18114 ft 325 kts 157°
2026-04-28 14:31 50.27086 -97.84045 17678 ft 325 kts 152°
2026-04-28 14:31 50.25325 -97.81811 17239 ft 328 kts 139°
2026-04-28 14:31 50.23879 -97.79044 16809 ft 330 kts 126°
2026-04-28 14:31 50.22669 -97.76006 16384 ft 329 kts 125°
2026-04-28 14:32 50.21455 -97.73043 15954 ft 327 kts 125°
2026-04-28 14:32 50.20229 -97.70059 15519 ft 326 kts 125°
2026-04-28 14:32 50.19002 -97.67037 15081 ft 324 kts 124°
2026-04-28 14:32 50.17814 -97.64107 14657 ft 323 kts 124°
2026-04-28 14:33 50.16608 -97.61163 14229 ft 322 kts 124°
2026-04-28 14:33 50.15400 -97.58236 13801 ft 319 kts 124°
2026-04-28 14:33 50.14206 -97.55317 13370 ft 319 kts 123°
2026-04-28 14:33 50.13024 -97.52410 12948 ft 317 kts 123°
2026-04-28 14:34 50.10656 -97.46651 12108 ft 314 kts 123°
2026-04-28 14:34 50.09482 -97.43795 11690 ft 312 kts 123°
2026-04-28 14:34 50.08309 -97.40949 11278 ft 311 kts 122°
2026-04-28 14:35 50.07146 -97.38124 10866 ft 309 kts 122°
2026-04-28 14:35 50.05987 -97.35307 10454 ft 309 kts 122°
2026-04-28 14:35 50.04827 -97.32500 10037 ft 308 kts 122°
2026-04-28 14:35 50.03668 -97.29699 9619 ft 306 kts 122°
2026-04-28 14:36 50.02516 -97.26921 9220 ft 304 kts 121°
2026-04-28 14:36 50.01391 -97.24199 8822 ft 303 kts 121°
2026-04-28 14:36 50.00239 -97.21419 8417 ft 302 kts 121°
2026-04-28 14:36 49.99118 -97.18717 8022 ft 300 kts 121°
2026-04-28 14:37 49.97991 -97.16001 7626 ft 299 kts 121°
2026-04-28 14:37 49.96862 -97.13299 7229 ft 297 kts 121°
2026-04-28 14:37 49.95747 -97.10628 6836 ft 296 kts 121°
2026-04-28 14:37 49.94631 -97.07942 6443 ft 292 kts 121°
2026-04-28 14:38 49.93533 -97.05305 6056 ft 290 kts 121°
2026-04-28 14:38 49.92441 -97.02684 5671 ft 288 kts 121°
2026-04-28 14:38 49.91352 -97.00087 5291 ft 281 kts 121°
2026-04-28 14:38 49.90358 -96.97719 4937 ft 250 kts 120°
2026-04-28 14:39 49.89615 -96.95376 4607 ft 235 kts 99°
2026-04-28 14:39 49.89491 -96.92894 4306 ft 229 kts 80°
2026-04-28 14:39 49.89884 -96.90568 4008 ft 220 kts 60°
2026-04-28 14:39 49.90715 -96.88636 3717 ft 212 kts 41°
2026-04-28 14:40 49.91871 -96.87262 3432 ft 208 kts 24°
2026-04-28 14:40 49.92748 -96.86713 3246 ft 204 kts 12°
2026-04-28 14:40 49.94618 -96.86516 2924 ft 201 kts 350°
2026-04-28 14:40 49.95932 -96.87141 2797 ft 198 kts 333°
2026-04-28 14:41 49.97073 -96.88356 2665 ft 202 kts 316°
2026-04-28 14:41 49.97989 -96.89907 2529 ft 176 kts 312°
2026-04-28 14:41 49.98777 -96.91255 2411 ft 163 kts 312°
2026-04-28 14:41 49.99529 -96.92523 2296 ft 160 kts 311°
2026-04-28 14:42 50.00304 -96.93792 2190 ft 165 kts 315°
2026-04-28 14:42 50.01077 -96.95010 2064 ft 149 kts 313°
2026-04-28 14:42 50.01707 -96.96091 1890 ft 124 kts 311°
2026-04-28 14:42 50.02242 -96.96995 1740 ft 93 kts 313°
2026-04-28 14:43 50.02635 -96.97629 1630 ft 82 kts 315°
2026-04-28 14:43 50.03005 -96.98286 1519 ft 79 kts 308°
2026-04-28 14:43 50.03369 -96.98908 1413 ft 77 kts 313°
2026-04-28 14:43 50.03730 -96.99515 1316 ft 75 kts 311°
2026-04-28 14:44 50.04084 -97.00111 1224 ft 74 kts 310°
2026-04-28 14:44 50.04441 -97.00727 1137 ft 79 kts 311°
2026-04-28 14:44 50.04835 -97.01346 1039 ft 81 kts 311°
2026-04-28 14:44 50.05222 -97.01994 912 ft 83 kts 314°
2026-04-28 14:45 50.05610 -97.02644 780 ft 82 kts 313°
2026-04-28 14:45 50.05945 -97.03212 760 ft 60 kts 313°
2026-04-28 14:45 50.06112 -97.03493 760 ft 17 kts 312°
2026-04-28 14:45 50.06140 -97.03650 760 ft 14 kts 277°
2026-04-28 14:46 50.06107 -97.03792 758 ft 13 kts 238°
2026-04-28 14:46 50.06099 -97.03811 760 ft 0 kts 239°
2026-04-28 14:47 50.06074 -97.03869 759 ft 10 kts 231°
2026-04-28 14:47 50.06050 -97.03926 759 ft 6 kts 237°
2026-04-28 14:47 50.06009 -97.03985 759 ft 10 kts 190°
2026-04-28 14:47 50.05932 -97.04000 759 ft 13 kts 186°
2026-04-28 14:48 50.05833 -97.04024 761 ft 16 kts 190°
2026-04-28 14:48 50.05720 -97.04045 761 ft 14 kts 186°
2026-04-28 14:48 50.05621 -97.04065 761 ft 15 kts 188°
2026-04-28 14:48 50.05553 -97.04078 761 ft 6 kts 185°
2026-04-28 14:49 50.05501 -97.04090 762 ft 9 kts 190°
2026-04-28 14:49 50.05451 -97.04137 762 ft 9 kts 264°
2026-04-28 14:49 50.05434 -97.04169 762 ft 2 kts 99°
2026-04-28 14:49 50.05434 -97.04167 762 ft 0 kts 93°